Temp
73 73 73 71 71 71 70 70 70 70 70 70 70 70 69 69 69 68 68 68 67 66 66 65 65 64 61 60 59 58 57 57 56 62 63 67 70 69 71 70 71 71 71
73 73 72 72 73 70 70 70 71 70 70 70 70 69 69 69 69 68 67 68 67 65 64 63 64 67 62 61 59 58 57 57 57 55 60 63 64 68 70 68 71 74 70
74 73 71 72 73 70 70 70 70 70 70 70 70 69 69 69 68 68 67 67 66 66 64 64 64 63 60 59 59 58 57 58 57 55 56 62 62 65 66 68 68 69 71
76 73 71 71 71 70 70 70 70 70 69 69 69 69 68 69 69 68 68 66 66 66 66 65 64 63 61 60 59 58 57 55 55 54 55 57 59 63 62 63 65 67 69
75 74 73 70 70 70 70 70 70 70 70 70 69 68 69 70 73 68 68 66 65 64 64 64 64 65 67 62 59 59 57 56 54 54 55 57 59 60 59 61 63 66 68
75 74 73 73 71 70 70 69 69 69 69 69 68 68 68 72 66 70 67 63 64 63 62 63 63 67 65 66 66 66 63 57 54 56 57 56 57 58 60 59 61 63 63
74 72 73 73 71 70 71 69 68 68 68 68 67 67 67 67 65 65 66 62 62 61 62 61 62 64 64 61 63 64 63 62 63 59 56 57 57 59 60 59 60 61 65
69 72 71 71 71 71 70 68 69 68 68 67 66 67 66 67 65 62 64 60 60 61 61 62 61 61 61 60 59 58 58 58 60 62 60 61 61 61 60 61 61 62 66
68 70 71 72 71 69 68 68 68 67 67 66 67 66 65 64 61 60 60 60 60 59 61 62 62 60 58 58 56 55 55 58 63 62 61 61 61 60 60 59 59 60 61
71 72 72 73 70 69 69 69 69 68 67 65 64 65 65 61 60 58 59 59 56 58 60 61 59 57 55 55 55 55 55 56 57 59 60 60 61 60 62 60 60 58 62
75 72 73 72 72 71 70 68 66 66 61 62 63 64 65 61 60 57 57 58 59 58 57 59 56 54 52 52 52 54 54 55 57 57 57 58 59 59 59 61 61 61 61
73 73 72 72 75 73 66 66 65 65 62 62 61 62 61 61 58 58 57 55 58 56 56 59 53 51 51 52 52 53 53 55 55 55 56 56 57 57 57 60 62 62 64
71 73 73 73 71 67 65 66 64 62 62 61 60 59 58 59 57 57 55 57 57 57 55 55 52 51 52 52 53 54 54 54 53 54 54 55 56 58 58 58 64 63 65
61 65 70 67 67 67 62 61 60 57 58 60 58 57 56 55 51 51 53 53 55 54 53 52 54 56 54 54 53 54 54 53 53 52 53 55 56 57 57 57 57 58 64
61 70 68 67 63 56 52 53 57 49 51 55 53 53 53 50 49 45 46 49 48 48 45 53 55 54 50 50 52 53 52 52 51 52 52 53 53 55 57 57 57 57 56
68 66 63 64 59 57 53 50 45 46 43 44 45 50 49 48 45 44 43 43 43 45 49 50 49 48 48 51 52 51 52 52 51 52 52 52 52 52 55 57 56 56 55
66 64 62 62 62 61 56 53 49 48 45 44 45 46 47 47 45 44 44 43 46 51 50 47 46 47 50 50 50 51 50 52 50 52 52 51 50 51 52 55 56 55 55
65 62 63 62 61 60 59 59 57 53 51 49 45 46 45 44 44 43 46 52 53 50 47 44 44 44 47 47 48 47 49 52 53 52 54 55 51 50 51 53 54 54 54
63 62 61 59 59 59 59 57 55 54 53 52 51 47 46 45 45 46 48 49 49 48 46 46 43 42 42 45 47 47 48 50 53 54 55 53 53 51 50 51 52 50 51
60 61 61 59 59 58 57 55 54 52 52 51 49 48 48 49 48 50 50 49 49 47 47 45 43 42 42 42 43 46 48 47 51 50 51 52 52 53 52 50 50 50 49
61 60 61 59 58 56 55 54 53 52 51 50 47 45 43 47 47 47 48 47 47 48 48 47 46 43 42 42 41 41 42 43 44 45 45 48 50 50 51 53 52 51 49
60 58 59 60 57 56 55 55 54 53 52 49 46 44 45 47 46 46 48 52 48 49 47 46 45 44 42 40 38 37 37 38 39 41 42 43 47 48 49 50 51 52 51
64 59 56 55 55 56 58 59 59 58 57 55 51 47 46 47 46 45 47 48 48 47 46 45 43 41 41 39 37 35 34 34 34 39 38 41 45 46 47 47 48 48 50
59 58 56 54 54 53 57 55 52 55 56 56 52 50 49 48 47 47 47 47 47 47 45 43 42 40 39 37 36 34 32 31 33 35 36 39 43 45 47 47 47 49 48
59 58 57 55 53 52 53 52 52 54 56 53 52 52 50 50 48 48 47 47 47 46 45 44 41 41 40 38 35 34 32 33 35 35 36 41 43 44 45 45 46 45 48
59 63 57 55 54 53 53 52 52 52 52 52 51 50 49 48 48 47 47 47 46 46 45 44 44 42 41 38 35 34 32 33 33 33 36 42 41 41 42 44 46 46 46
MSLP
1012.70 1013.16 1013.81 1014.28 1014.53 1014.74 1015.04 1015.36 1015.49 1015.63 1015.71 1015.79 1015.83 1015.92 1015.96 1016.01 1016.07 1016.10 1015.99 1015.99 1016.08 1016.12 1016.10 1016.32 1016.50 1016.46 1016.62 1016.75 1016.88 1016.91 1016.96 1016.79 1016.25 1014.90 1014.18 1012.92 1011.22 1010.54 1009.97 1009.68 1009.13 1009.12 1009.31
1011.84 1012.58 1013.46 1013.89 1014.25 1014.69 1014.83 1015.01 1015.24 1015.36 1015.41 1015.47 1015.50 1015.62 1015.74 1015.73 1015.65 1015.61 1015.57 1015.53 1015.62 1015.77 1015.79 1015.94 1015.99 1016.07 1016.23 1016.23 1016.43 1016.50 1016.44 1016.24 1015.92 1014.91 1013.74 1012.51 1011.62 1010.25 1009.36 1008.94 1008.64 1008.25 1008.33
1011.30 1012.09 1012.90 1013.48 1013.97 1014.24 1014.43 1014.60 1014.84 1014.94 1015.03 1015.11 1015.21 1015.29 1015.28 1015.24 1015.19 1015.12 1015.12 1015.00 1015.11 1015.12 1015.16 1015.39 1015.49 1015.64 1015.84 1015.80 1015.81 1015.89 1015.64 1015.46 1015.22 1014.68 1013.44 1012.33 1011.26 1010.42 1008.94 1008.30 1007.83 1007.53 1007.20
1010.82 1011.56 1012.32 1013.09 1013.46 1013.82 1013.89 1014.13 1014.29 1014.38 1014.53 1014.69 1014.70 1014.61 1014.61 1014.54 1014.51 1014.46 1014.46 1014.56 1014.56 1014.55 1014.48 1014.62 1014.67 1014.80 1014.97 1015.08 1015.18 1015.04 1014.97 1014.93 1014.64 1014.13 1013.31 1012.15 1011.13 1010.02 1009.07 1008.25 1007.32 1006.90 1006.33
1010.23 1010.98 1011.60 1012.27 1012.77 1013.27 1013.52 1013.53 1013.60 1013.80 1013.93 1013.95 1014.06 1014.08 1014.04 1013.99 1013.92 1014.00 1014.03 1014.17 1014.28 1014.26 1014.10 1014.11 1014.05 1014.04 1014.06 1014.23 1014.50 1014.38 1014.33 1014.10 1013.98 1013.62 1012.77 1011.85 1010.67 1009.67 1008.89 1008.03 1007.28 1006.20 1005.24
1009.44 1010.34 1010.97 1011.63 1012.26 1012.69 1012.89 1012.92 1013.17 1013.36 1013.46 1013.57 1013.59 1013.71 1013.71 1013.55 1013.54 1013.68 1013.83 1014.08 1014.03 1014.05 1014.07 1013.71 1013.55 1013.46 1013.44 1013.36 1013.26 1013.20 1013.15 1013.23 1013.19 1012.84 1011.86 1010.85 1009.68 1009.00 1008.25 1007.67 1006.82 1005.98 1004.76
1008.75 1009.91 1010.58 1011.03 1011.61 1011.99 1012.11 1012.44 1012.80 1012.97 1012.98 1013.12 1013.16 1013.21 1013.27 1013.18 1013.23 1013.25 1013.44 1013.69 1013.87 1013.81 1013.62 1013.44 1013.03 1012.82 1012.76 1012.74 1012.54 1012.27 1012.23 1012.12 1012.00 1011.80 1011.03 1010.09 1008.81 1008.11 1007.44 1006.47 1005.93 1005.33 1003.95
1008.47 1009.34 1009.82 1010.39 1010.93 1011.18 1011.62 1012.01 1012.15 1012.22 1012.54 1012.68 1012.81 1012.68 1012.77 1012.83 1012.88 1012.99 1013.11 1013.42 1013.47 1013.03 1012.88 1012.88 1012.53 1012.32 1012.19 1012.35 1012.23 1012.22 1012.06 1011.85 1011.32 1010.67 1009.91 1008.74 1007.67 1006.45 1005.77 1005.12 1004.68 1004.18 1003.34
1008.66 1009.25 1009.26 1009.73 1010.08 1010.36 1010.81 1011.31 1011.66 1012.00 1012.12 1012.17 1012.28 1012.30 1012.35 1012.52 1012.45 1012.44 1012.89 1013.01 1013.04 1013.02 1012.81 1012.58 1012.15 1012.08 1012.25 1012.12 1012.24 1012.13 1011.80 1011.19 1010.31 1009.56 1008.58 1007.45 1005.98 1004.55 1003.22 1003.26 1002.88 1003.03 1002.21
1008.26 1008.16 1008.28 1008.57 1008.99 1009.56 1010.12 1010.42 1010.52 1010.92 1011.75 1011.74 1012.09 1011.99 1011.72 1012.12 1011.96 1012.60 1012.67 1012.87 1013.06 1013.06 1012.39 1012.17 1012.20 1012.00 1012.08 1012.13 1012.10 1011.93 1011.59 1010.85 1010.08 1008.76 1007.53 1006.05 1004.36 1002.69 1000.16 1000.41 1001.39 1001.39 1000.82
1006.88 1007.17 1007.53 1007.79 1008.40 1008.82 1009.24 1009.69 1010.00 1010.62 1011.58 1011.88 1012.06 1011.75 1011.35 1011.74 1012.25 1012.46 1012.59 1012.66 1012.65 1012.66 1012.32 1012.16 1012.25 1012.42 1012.17 1012.18 1012.12 1011.96 1011.66 1010.90 1009.83 1008.61 1007.49 1005.80 1003.75 1002.21 1001.00 1000.02 1000.24 1000.51 1000.31
1006.22 1006.58 1006.94 1007.38 1007.63 1008.08 1009.12 1010.00 1010.34 1010.83 1011.79 1012.70 1012.20 1011.62 1011.57 1011.88 1012.08 1012.41 1012.65 1012.95 1012.40 1012.52 1012.36 1012.22 1012.45 1012.34 1012.15 1012.18 1012.06 1011.70 1011.11 1010.52 1009.70 1008.73 1007.58 1005.96 1003.92 1002.15 1000.78 999.52 999.14 999.47 999.63
1008.28 1005.70 1006.38 1006.62 1007.69 1008.33 1009.00 1009.92 1010.68 1011.52 1012.07 1012.43 1012.06 1011.86 1012.00 1012.09 1012.42 1012.77 1012.79 1012.57 1012.48 1012.44 1012.33 1012.45 1012.33 1012.22 1012.15 1012.01 1011.91 1011.50 1010.98 1010.47 1009.81 1008.93 1007.80 1006.39 1004.85 1002.82 1001.33 999.38 997.89 998.25 998.66
1009.23 1008.89 1007.45 1008.55 1008.98 1009.35 1010.08 1010.85 1011.26 1011.72 1012.07 1011.74 1012.03 1012.22 1012.35 1012.81 1013.19 1013.18 1013.07 1012.84 1012.76 1012.53 1012.25 1012.02 1012.23 1012.04 1011.94 1011.88 1011.64 1011.36 1011.05 1010.62 1010.06 1009.33 1008.09 1006.85 1005.50 1003.40 1001.70 1000.57 999.40 998.22 997.90
1009.21 1008.82 1009.27 1009.08 1009.16 1009.95 1010.76 1011.46 1011.28 1011.92 1012.17 1012.49 1012.44 1012.44 1012.69 1013.16 1013.38 1013.42 1013.34 1013.17 1012.98 1012.79 1012.62 1011.81 1012.10 1012.32 1012.37 1011.89 1011.79 1011.52 1011.15 1010.68 1010.00 1009.20 1008.24 1007.18 1005.91 1004.43 1003.07 1001.69 1000.38 999.66 999.04
1007.97 1008.19 1008.62 1008.68 1009.05 1010.19 1011.38 1012.09 1012.04 1012.33 1012.82 1012.54 1012.25 1012.41 1013.04 1013.11 1013.29 1013.21 1013.14 1012.93 1012.63 1012.48 1012.69 1012.65 1012.71 1012.72 1012.62 1012.37 1012.24 1011.82 1011.36 1010.95 1010.36 1009.56 1008.79 1008.04 1006.95 1005.66 1004.22 1002.87 1002.13 1001.15 1000.51
1006.58 1007.52 1007.96 1008.34 1008.96 1009.98 1010.88 1011.56 1012.46 1013.44 1013.34 1013.11 1012.91 1012.90 1013.02 1013.16 1013.31 1013.02 1012.45 1012.10 1012.12 1012.23 1012.77 1013.17 1013.18 1013.09 1013.10 1013.01 1012.78 1012.25 1011.72 1011.19 1010.68 1010.04 1009.27 1008.58 1007.98 1007.01 1005.51 1004.35 1003.30 1002.49 1001.22
1006.81 1007.58 1007.93 1008.38 1008.81 1009.59 1010.34 1010.73 1011.22 1012.14 1012.85 1013.10 1013.01 1013.02 1013.15 1013.27 1013.27 1012.94 1012.32 1012.21 1012.61 1012.85 1013.25 1013.59 1013.73 1013.81 1013.70 1013.38 1013.08 1012.68 1011.93 1011.21 1010.65 1010.18 1009.74 1009.29 1008.58 1007.61 1006.74 1006.04 1005.29 1004.35 1003.64
1007.44 1007.96 1007.99 1008.44 1008.82 1009.24 1009.82 1010.39 1010.98 1011.60 1012.20 1012.57 1013.00 1013.26 1013.27 1013.17 1013.28 1013.00 1012.78 1012.89 1013.08 1013.44 1013.64 1014.04 1014.25 1014.20 1014.09 1013.75 1013.33 1012.89 1012.34 1011.60 1010.99 1010.56 1010.12 1009.61 1009.03 1008.76 1007.99 1007.22 1006.57 1005.65 1005.02
1007.53 1007.94 1008.20 1008.56 1008.93 1009.49 1009.89 1010.21 1010.78 1011.37 1011.88 1012.28 1012.88 1013.20 1013.21 1013.13 1013.31 1013.24 1013.12 1013.24 1013.35 1013.48 1013.76 1013.97 1014.08 1014.08 1013.97 1013.81 1013.49 1013.09 1012.62 1012.18 1011.64 1011.32 1010.77 1010.10 1009.66 1009.06 1008.42 1008.07 1007.84 1007.13 1006.24
1007.97 1008.23 1008.49 1008.87 1009.04 1009.39 1009.87 1010.22 1010.72 1011.11 1011.76 1012.35 1012.89 1013.16 1013.18 1013.42 1013.42 1013.37 1013.35 1013.37 1013.40 1013.34 1013.46 1013.65 1013.78 1013.87 1014.02 1013.97 1013.81 1013.70 1013.38 1013.04 1012.63 1012.21 1011.76 1010.98 1010.15 1009.68 1009.24 1008.82 1008.22 1007.65 1006.95
1008.20 1008.59 1008.55 1008.90 1009.22 1009.50 1009.91 1010.08 1010.47 1010.81 1011.39 1011.92 1012.61 1013.06 1013.02 1013.29 1013.55 1013.52 1013.37 1013.08 1013.15 1013.28 1013.49 1013.75 1014.06 1014.16 1014.25 1014.38 1014.36 1014.37 1014.31 1014.00 1013.54 1013.02 1012.45 1011.84 1011.07 1010.49 1009.80 1009.34 1008.82 1008.21 1007.78
1008.42 1008.62 1008.77 1009.01 1009.35 1009.62 1009.77 1009.87 1010.11 1010.23 1010.74 1011.25 1012.02 1012.55 1012.93 1013.16 1013.43 1013.45 1013.33 1013.23 1013.26 1013.38 1013.62 1013.94 1014.33 1014.63 1014.75 1014.87 1014.86 1014.86 1014.86 1014.82 1014.67 1014.12 1013.42 1012.51 1011.65 1011.13 1010.57 1010.10 1009.50 1009.03 1008.69
1008.46 1008.68 1009.05 1009.32 1009.52 1009.75 1009.76 1009.83 1009.87 1010.04 1010.41 1010.79 1011.37 1011.89 1012.39 1012.75 1013.00 1013.14 1013.17 1013.27 1013.32 1013.50 1013.71 1014.06 1014.41 1014.77 1015.01 1015.22 1015.31 1015.28 1015.21 1014.94 1014.59 1014.32 1013.86 1013.05 1012.36 1011.63 1011.12 1010.81 1010.39 1009.97 1009.42
1008.08 1008.42 1008.73 1009.04 1009.24 1009.45 1009.53 1009.51 1009.77 1010.03 1010.20 1010.50 1011.00 1011.33 1011.78 1012.27 1012.59 1012.76 1012.94 1013.09 1013.29 1013.53 1013.86 1014.16 1014.52 1014.82 1015.08 1015.26 1015.41 1015.36 1015.27 1015.02 1014.50 1014.13 1013.65 1013.06 1012.66 1012.26 1011.77 1011.53 1011.18 1010.75 1010.34
1008.12 1008.14 1008.37 1008.55 1008.80 1009.08 1009.25 1009.38 1009.56 1009.68 1009.99 1010.33 1010.72 1011.15 1011.52 1011.94 1012.29 1012.56 1012.76 1013.00 1013.28 1013.46 1013.77 1013.89 1014.28 1014.63 1015.04 1015.30 1015.33 1015.24 1015.09 1014.85 1014.54 1014.28 1013.82 1013.32 1013.12 1012.91 1012.48 1012.09 1011.71 1011.42 1011.18
Wind_Speed
9 9 7 7 7 7 7 5 5 3 3 3 4 4 4 5 5 4 4 5 5 5 4 4 4 4 1 1 1 1 3 3 6 10 11 14 14 12 12 9 10 9 9
10 9 8 7 6 6 6 6 5 4 3 4 4 4 4 5 5 5 5 5 5 5 5 4 6 4 3 3 3 5 4 4 5 13 12 11 14 12 14 11 11 10 10
9 10 8 8 7 7 7 6 5 5 5 5 4 5 6 6 6 7 6 7 5 5 6 6 7 7 6 4 5 5 4 4 6 8 12 11 11 11 10 11 9 11 9
12 11 9 9 8 7 7 7 7 7 6 6 6 7 7 7 7 7 6 6 6 6 7 6 7 7 7 7 6 7 5 5 6 7 9 11 10 12 9 11 10 7 11
13 13 11 9 8 8 8 8 7 7 7 7 6 6 7 6 4 5 3 4 6 7 7 6 7 8 11 8 4 8 7 6 5 7 10 11 11 13 11 9 12 10 11
15 13 11 12 10 9 8 8 7 7 7 6 6 6 7 4 8 6 5 4 5 6 6 6 6 9 9 12 15 17 14 8 7 7 12 13 17 13 12 10 11 11 9
14 11 12 12 11 11 11 8 7 8 7 7 5 5 6 5 9 9 4 2 5 6 6 6 6 5 8 7 10 14 13 13 14 10 15 16 17 16 16 15 13 12 12
10 9 10 10 11 11 9 8 8 6 7 6 6 7 6 5 8 7 3 4 6 8 7 8 7 7 6 5 6 6 6 7 11 10 13 17 18 20 18 16 15 13 12
9 12 10 10 10 9 8 8 6 5 5 6 4 7 6 5 10 11 5 5 5 6 5 7 7 4 2 5 3 5 6 9 9 19 24 27 30 30 28 13 13 13 11
12 12 11 11 10 8 8 9 7 5 5 3 4 5 8 7 8 7 7 1 4 4 5 6 5 6 3 1 2 5 7 9 13 16 17 20 23 20 21 17 12 12 8
11 9 11 10 10 9 8 5 6 5 1 3 5 6 5 3 4 8 7 1 3 3 4 6 4 3 6 8 6 4 7 11 15 10 14 14 17 14 12 9 13 12 11
11 11 9 8 8 6 7 4 5 6 4 5 7 5 4 5 5 2 3 6 5 3 5 5 3 4 8 6 4 10 12 12 8 9 11 14 16 15 15 12 13 15 13
18 7 6 8 6 6 7 6 3 5 2 7 5 1 3 4 5 6 1 5 7 2 3 4 7 7 5 4 8 10 10 7 8 9 10 12 14 14 15 15 4 14 15
14 14 16 7 3 6 7 5 5 1 2 2 4 3 4 4 4 3 3 4 6 6 6 6 6 5 5 3 3 6 5 6 8 8 9 11 12 13 14 13 9 9 9
11 5 10 8 5 7 6 2 4 3 2 2 2 3 4 3 0 3 2 4 3 4 8 3 5 3 3 4 5 6 6 7 7 9 8 10 11 13 12 13 12 9 8
9 7 1 2 4 6 6 6 14 9 3 7 6 6 3 6 5 5 8 10 9 6 2 4 3 3 3 5 5 6 5 9 7 8 8 9 10 11 12 11 12 10 9
6 4 2 2 4 8 6 7 8 1 1 4 7 9 8 4 5 8 9 8 4 5 5 4 3 4 5 5 6 6 6 6 7 7 7 9 9 9 14 11 12 11 11
5 3 3 4 5 5 5 5 6 7 5 3 2 1 1 2 6 10 11 7 6 6 4 4 4 4 3 3 4 4 6 6 7 8 7 7 8 9 10 10 11 12 8
3 2 3 5 4 6 5 5 5 5 4 5 3 2 1 5 3 5 9 4 5 4 4 4 3 2 2 3 3 4 5 7 7 7 7 8 8 6 9 10 10 14 12
5 4 5 5 5 5 5 5 5 5 4 5 4 3 1 4 2 1 2 3 3 3 3 3 3 3 2 2 4 4 4 6 8 8 8 7 7 7 8 8 9 9 9
3 3 5 5 5 5 5 5 4 4 5 4 4 3 4 2 2 2 2 2 2 2 4 2 1 2 1 3 4 5 5 5 7 8 7 8 8 7 6 6 7 8 8
3 2 3 4 4 5 4 4 4 5 6 5 4 4 4 3 2 1 2 1 2 2 4 5 4 4 4 5 4 5 5 5 6 8 8 7 7 7 6 6 7 7 8
3 4 5 4 4 5 3 3 4 4 6 7 7 6 4 4 4 2 2 3 3 4 5 5 5 5 5 5 5 5 4 4 4 6 7 7 6 8 6 5 5 5 7
5 5 5 4 4 3 3 2 2 6 5 3 7 6 6 5 5 5 3 1 4 4 5 5 5 6 5 5 4 4 4 4 4 5 7 5 5 9 7 7 5 7 5
3 5 5 5 5 5 4 3 3 5 4 4 4 4 7 6 5 5 3 4 4 4 5 6 5 8 7 7 5 5 5 6 5 8 4 5 7 9 8 5 7 5 9
4 3 3 2 4 5 4 3 2 2 5 5 5 5 5 5 5 5 4 4 3 4 6 5 8 10 9 6 4 5 5 9 8 10 6 4 6 6 5 6 10 7 8
Wind_Direction
169 168 180 181 181 172 168 195 209 209 219 231 235 249 258 270 279 277 259 261 259 241 213 216 213 179 220 261 262 264 260 251 294 308 300 305 297 272 268 240 240 228 229
160 162 165 165 169 177 180 192 200 194 230 233 249 264 272 277 276 260 256 264 249 257 262 242 222 196 218 227 236 266 254 260 283 305 304 308 301 292 276 246 235 229 225
156 152 160 167 177 179 179 184 194 201 215 238 248 243 254 259 260 259 240 248 254 260 257 221 212 203 225 225 233 250 246 256 265 283 299 300 295 295 297 265 235 236 230
164 162 162 175 181 189 189 199 206 208 217 232 228 236 242 247 247 248 250 241 252 254 249 226 217 214 219 225 231 249 249 253 263 281 297 299 297 298 295 289 269 229 235
165 167 176 176 178 185 194 205 206 210 219 224 237 249 259 251 240 182 205 241 252 255 259 253 236 236 231 215 220 258 237 254 268 285 303 300 299 304 293 293 290 256 241
169 176 172 177 180 188 202 211 208 220 226 223 236 241 264 254 185 203 198 249 270 268 274 270 254 261 270 253 255 251 242 252 264 286 296 294 290 286 280 276 276 275 251
157 170 177 174 182 196 206 202 205 214 206 228 242 237 257 253 212 224 227 255 282 275 262 267 275 257 261 268 266 262 263 262 262 284 287 292 294 287 282 270 258 260 252
151 174 173 171 185 201 201 200 210 200 211 216 230 247 246 251 231 205 206 258 260 249 249 263 253 264 264 292 301 308 288 272 276 277 286 287 283 285 267 257 254 255 267
177 199 177 178 196 197 199 199 207 197 213 214 225 253 246 256 189 193 190 239 273 301 306 295 273 305 42 30 338 300 284 286 299 295 292 294 290 289 263 238 232 235 240
195 191 183 188 191 192 192 197 192 171 211 157 286 269 267 177 195 215 196 244 299 304 305 308 57 96 94 176 294 284 300 305 312 313 317 314 314 315 305 206 218 236 230
191 177 185 187 190 197 198 182 157 151 98 278 261 270 273 347 220 204 204 238 255 299 328 316 70 96 83 42 344 317 301 300 300 324 319 317 323 331 338 225 211 221 232
183 179 178 181 198 191 132 147 136 147 154 320 279 276 49 88 69 321 296 264 326 317 295 300 118 112 76 27 356 325 324 321 317 322 325 326 324 338 336 316 216 215 227
340 178 159 165 146 128 133 163 108 25 42 260 255 318 88 74 69 69 18 357 312 347 329 351 164 109 97 37 352 343 346 340 328 327 323 325 324 330 331 346 278 211 221
341 357 345 46 44 62 59 66 87 113 234 310 73 88 109 97 51 14 5 359 348 351 349 314 197 142 112 85 5 351 340 338 344 323 318 321 316 331 351 354 349 359 206
193 209 230 214 169 101 69 333 148 53 82 143 141 117 116 113 197 246 280 309 314 302 325 343 78 33 5 21 6 347 341 337 337 337 333 333 336 333 346 353 2 8 22
194 207 220 145 93 123 136 82 41 82 35 77 71 118 57 126 181 238 254 253 246 254 108 58 51 31 25 19 354 346 344 345 334 335 339 342 341 332 343 354 359 9 10
131 123 181 154 147 142 142 143 145 232 109 97 93 85 94 106 8 330 302 266 309 89 72 52 48 41 24 16 358 346 348 347 331 335 348 352 341 339 354 358 354 2 11
97 139 150 171 136 130 140 149 144 156 161 163 255 162 94 24 346 339 11 55 57 49 65 53 49 26 12 1 346 331 326 334 353 350 348 351 356 352 2 359 359 355 356
80 13 138 111 112 128 126 99 102 106 122 115 98 48 288 275 286 14 31 65 90 72 71 60 54 37 341 331 323 320 324 337 346 0 1 0 356 10 1 360 357 360 358
115 109 104 145 134 116 119 118 115 119 137 130 122 139 7 42 80 80 78 81 97 134 132 154 188 210 244 280 331 330 340 354 6 359 351 359 358 358 8 10 358 353 0
152 108 131 120 115 126 128 131 144 156 132 125 131 126 139 109 79 97 119 101 80 64 120 129 184 201 288 27 36 15 2 9 3 355 352 345 352 359 355 2 353 360 4
107 169 135 130 131 141 163 164 179 152 151 142 143 159 154 121 106 3 0 149 182 98 102 82 65 48 58 59 44 33 13 14 359 351 343 340 346 348 341 354 359 10 11
172 111 87 86 118 124 131 180 213 180 162 168 158 157 171 173 150 165 280 313 109 93 99 90 82 58 57 57 60 45 36 9 334 332 328 330 342 1 350 347 352 4 16
114 121 134 150 151 173 194 214 110 139 141 134 153 160 168 175 164 173 205 105 108 95 111 105 99 92 71 58 50 60 21 347 320 328 315 326 347 360 359 4 359 6 4
154 174 183 191 186 204 217 230 182 190 169 163 141 134 146 177 169 175 174 138 136 136 122 133 120 115 98 83 67 43 9 353 359 333 331 351 14 3 5 13 8 356 21
303 173 170 211 179 200 188 150 167 168 162 162 151 135 129 119 124 129 125 116 142 133 144 141 147 136 131 119 94 43 25 6 10 357 347 17 30 6 3 8 12 8 21